Weather Roundup
Issued by NWS Springfield, MO

Home | Current Version | Previous Version | Text Only | Print | Product List | Glossary On
Versions: 1 2 3 4 5 6 7 8 9 10 11 12 13 14 15 16 17 18 19 20 21 22 23 24 25 26 27 28 29 30 31 32 33 34 35 36 37 38 39 40 41 42 43 44 45 46 47 48 49 50
000
NZUS99 KSGF 301807
HRRSGF

HOURLY WEATHER
NATIONAL WEATHER SERVICE SPRINGFIELD MO
100 PM CDT TUE AUG 30 2016

......SGF CWA......

CITY           SKY/WX    TMP DP  RH WIND       PRES   REMARKS
SPRINGFIELD    MOSUNNY   91  70  49 N12       30.14F HX  96
6HR MIN TEMP:  71; 6HR MAX TEMP:  91;

JOPLIN         MOSUNNY   89  72  56 VRB3      30.13F HX  96
6HR MIN TEMP:  71; 6HR MAX TEMP:  89;

WEST PLAINS    SUNNY     88  70  55 E6        30.15F HX  93
6HR MIN TEMP:  71; 6HR MAX TEMP:  88;

ROLLA          SUNNY     88  70  55 CALM      30.13F HX  93
6HR MIN TEMP:  69; 6HR MAX TEMP:  89;

OSAGE BEACH    MOSUNNY   86  73  65 CALM      30.13F HX  93
BRANSON        PTSUNNY   86  73  66 CALM      30.15F HX  93

......SURROUNDING SGF CWA......

CITY           SKY/WX    TMP DP  RH WIND       PRES   REMARKS
CHANUTE        MOSUNNY   89  73  59 MISG      30.13F HX  97
PARSONS        SUNNY     89  71  55 CALM      30.14F HX  95
COFFEYVILLE    MOSUNNY   90  72  55 N7        30.12F HX  97
EMPORIA        SUNNY     84  71  65 CALM      30.16F
GROVE OK       SUNNY     91  70  49 NE8       30.12F HX  97
ROGERS AR      PTSUNNY   85  72  65 VRB3      30.14F HX  91
SILOAM SPRINGS MOSUNNY   88  66  48 SE5       30.12F HX  90
HARRISON AR    PTSUNNY   83  74  74 NE3       30.15F
NEAR YELLVILLE MOSUNNY   88  73  62 CALM      30.09F HX  96

......KANSAS AND MISSOURI......

CITY           SKY/WX    TMP DP  RH WIND       PRES   REMARKS
KANSAS CTY INT MOSUNNY   82  69  64 NE8       30.17F
DOWNTOWN KC    CLOUDY    84  72  67 N7        30.15F
COLUMBIA       CLOUDY    78  71  79 N10       30.14F
SEDALIA        SUNNY     87  74  64 CALM      30.14F HX  95
ST JOSEPH      MOSUNNY   82  71  69 E5        30.16F
ST LOUIS       PTSUNNY   91  70  49 NW5       30.11F HX  96
SPIRIT OF STL  PTSUNNY   91  72  53 VRB3      30.09F HX  98
KIRKSVILLE     MOSUNNY   80  70  71 CALM      30.16F
WICHITA        MOSUNNY   89  70  53 VRB3      30.14F HX  94
TOPEKA         PTSUNNY   84  73  69 N5        30.16S HX  90
OLATHE         CLOUDY    83  71  67 VRB3      30.16F

......TENNESSEE......

CITY           SKY/WX    TMP DP  RH WIND       PRES   REMARKS
MEMPHIS        MOSUNNY   95  65  37 E6        30.05F HX  97
NASHVILLE      MOSUNNY   90  68  48 CALM      30.08F HX  93

......ARKANSAS.......

CITY           SKY/WX    TMP DP  RH WIND       PRES   REMARKS
FAYETTEVILLE   PTSUNNY   88  70  55 VRB5      30.13F HX  93
FT SMITH       MOSUNNY   90  72  55 E5        30.07F HX  97
LITTLE ROCK    MOSUNNY   94  72  48 VRB7      30.06F HX 102

......OKLAHOMA.......

CITY           SKY/WX    TMP DP  RH WIND       PRES   REMARKS
TULSA          MOSUNNY   92  73  53 VRB5      30.08F HX 100
PONCA CITY     SUNNY     88  69  53 CALM      30.12F HX  92
MCALESTER      MOSUNNY   93  70  46 VRB7      30.09F HX  99
OKLAHOMA CITY  PTSUNNY   89  66  46 NE8       30.12F HX  91

......IOWA............

CITY           SKY/WX    TMP DP  RH WIND       PRES   REMARKS
DES MOINES     CLOUDY    79  71  76 NW7       30.16S
QUAD CITIES    PTSUNNY   81  71  71 SW8       30.13F

......ILLINOIS........

CITY           SKY/WX    TMP DP  RH WIND       PRES   REMARKS
QUINCY         LGT RAIN  71  70  96 S3        30.15F
CHICAGO        PTSUNNY   81  72  74 VRB3      30.10F




USA.gov is the U.S. government's official web portal to all federal, state and local government web resources and services.